Weather History for Dublin, Ireland

Change the Weather History Date:

Thursday, May 9, 2013

  Actual Average Record
Temperature  
Mean Temperature 49 °F -  
Max Temperature 53 °F 60 °F 64 °F (2000)
Min Temperature 45 °F 46 °F 33 °F (2012)
Degree Days  
Heating Degree Days 16    
Moisture  
Dew Point 41 °F    
Average Humidity 77    
Maximum Humidity 88    
Minimum Humidity 60    
Precipitation  
Precipitation 0.16 in 0.07 in - ()
Sea Level Pressure  
Sea Level Pressure 29.34 in    
Wind  
Wind Speed 20 mph ()    
Max Wind Speed 28 mph    
Max Gust Speed 39 mph    
Visibility 6.6 miles    
Events Rain    
Averages and records for this station are not official NWS values.
T = Trace of Precipitation, MM = Missing Value Source: Averaged Metar Reports

Daily Weather History Graph

Daily Weather History Graph

Search for Another Location

Airport:

Trip Planner

Search our weather history database for the weather conditions in past years. The results will help you decide how hot, cold, wet, or windy it might be!

Date:

Astronomy

May. 09, 2013 Rise Set
Actual Time 5:35 AM IST 9:09 PM IST
Civil Twilight 4:52 AM IST 9:52 PM IST
Nautical Twilight 3:53 AM IST 10:51 PM IST
Astronomical Twilight 2:22 AM IST 12:26 AM IST
Moon 5:17 AM IST (5/9) 8:49 PM IST (5/9)
Length of Visible Light 16h 59m
Length of Day
15h 33m
Waning Crescent, 0% of the Moon is Illuminated
May 9
Waning Crescent
May 10
New
May 18
First Quarter
May 25
Full
May 31
Last Quarter

Hourly Weather History & Observations

Time (IST) Temp. Windchill Dew Point Humidity Pressure Visibility Wind Dir Wind Speed Gust Speed Precip Events Conditions
12:00 AM 46.4 °F 38.5 °F 37.4 °F 71% 29.50 in 6.2 mi South 21.9 mph - N/A   Mostly Cloudy
12:30 AM 46.4 °F 38.7 °F 37.4 °F 71% 29.50 in 6.2 mi South 20.7 mph 32.2 mph N/A   Mostly Cloudy
1:00 AM 46 °F - 36 °F 60% 29.50 in 25 mi South 20.1 mph - -   Partly Cloudy
1:00 AM 46.4 °F 39.0 °F 35.6 °F 66% 29.47 in 6.2 mi South 19.6 mph - N/A   Mostly Cloudy
1:30 AM 46.4 °F 39.0 °F 35.6 °F 66% 29.47 in 6.2 mi South 19.6 mph - N/A   Mostly Cloudy
2:00 AM 46.4 °F 38.1 °F 37.4 °F 71% 29.47 in 6.2 mi South 24.2 mph 35.7 mph N/A   Mostly Cloudy
2:30 AM 46.4 °F 38.7 °F 35.6 °F 66% 29.44 in 6.2 mi South 20.7 mph - N/A   Mostly Cloudy
3:00 AM 46.4 °F 38.7 °F 35.6 °F 66% 29.44 in 6.2 mi South 20.7 mph 33.4 mph N/A   Mostly Cloudy
3:30 AM 46.4 °F 38.1 °F 35.6 °F 66% 29.42 in 6.2 mi South 24.2 mph 36.8 mph N/A   Mostly Cloudy
4:00 AM 46.4 °F 38.5 °F 35.6 °F 66% 29.42 in 6.2 mi South 21.9 mph - N/A   Mostly Cloudy
4:30 AM 46.4 °F 39.5 °F 37.4 °F 71% 29.39 in 6.2 mi South 17.3 mph - N/A Rain Light Rain
5:00 AM 46.4 °F 39.5 °F 37.4 °F 71% 29.39 in 6.2 mi South 17.3 mph - N/A   Mostly Cloudy
5:30 AM 46.4 °F 39.5 °F 37.4 °F 71% 29.36 in 6.2 mi South 17.3 mph - N/A   Mostly Cloudy
6:00 AM 46.4 °F 39.2 °F 37.4 °F 71% 29.33 in 6.2 mi South 18.4 mph - N/A   Mostly Cloudy
6:30 AM 48.2 °F - 39.2 °F 71% 29.33 in 6.2 mi South 18.4 mph - N/A Rain Light Rain
7:00 AM 47 °F - 39 °F 66% 29.32 in 25 mi South 20.1 mph - - Rain Light Rain
7:00 AM 46.4 °F 39.0 °F 39.2 °F 76% 29.30 in 6.2 mi South 19.6 mph 34.5 mph N/A Rain Light Rain
7:30 AM 48.2 °F - 39.2 °F 71% 29.30 in 6.2 mi South 18.4 mph - N/A Rain Light Rain
8:00 AM 48.2 °F - 39.2 °F 71% 29.27 in 6.2 mi SSE 18.4 mph - N/A Rain Light Rain
8:30 AM 46.4 °F 39.5 °F 41.0 °F 81% 29.27 in 6.2 mi SSE 17.3 mph - N/A Rain Light Rain
9:00 AM 48.2 °F - 39.2 °F 71% 29.24 in 6.2 mi South 18.4 mph - N/A   Mostly Cloudy
9:30 AM 46.4 °F 39.8 °F 41.0 °F 81% 29.21 in 6.2 mi SSE 16.1 mph - N/A Rain Light Rain
10:00 AM 48.2 °F - 42.8 °F 82% 29.21 in 6.2 mi South 16.1 mph - N/A Rain Light Rain
10:30 AM 48.2 °F - 42.8 °F 82% 29.21 in 6.2 mi South 15.0 mph - N/A   Mostly Cloudy
11:00 AM 50.0 °F - 46.4 °F 87% 29.18 in 6.2 mi SSW 20.7 mph - N/A   Mostly Cloudy
11:30 AM 51.8 °F - 44.6 °F 76% 29.18 in 6.2 mi SW 18.4 mph - N/A   Mostly Cloudy
12:00 PM 51.8 °F - 44.6 °F 76% 29.18 in 6.2 mi WSW 25.3 mph - N/A   Mostly Cloudy
12:30 PM 53.6 °F - 42.8 °F 67% 29.21 in 6.2 mi SW 20.7 mph - N/A   Mostly Cloudy
1:00 PM 54 °F - 45 °F 62% 29.21 in 19 mi SW 24.6 mph - -   Partly Cloudy
1:00 PM 53.6 °F - 44.6 °F 72% 29.21 in 6.2 mi SW 25.3 mph - N/A   Mostly Cloudy
1:30 PM 51.8 °F - 48.2 °F 88% 29.21 in 6.2 mi SW 24.2 mph - N/A Rain Light Rain Showers
2:00 PM 50.0 °F - 46.4 °F 87% 29.21 in 6.2 mi SW 23.0 mph 35.7 mph N/A Rain Light Rain Showers
2:30 PM 50.0 °F - 46.4 °F 87% 29.21 in 5.0 mi SW 25.3 mph - N/A Rain Light Rain Showers
3:00 PM 50.0 °F - 46.4 °F 87% 29.24 in 6.2 mi SW 17.3 mph - N/A Rain Light Rain Showers
3:30 PM 50.0 °F - 46.4 °F 87% 29.24 in 6.2 mi WSW 24.2 mph - N/A Rain Light Rain Showers
4:00 PM 50.0 °F - 46.4 °F 87% 29.24 in 5.0 mi WSW 24.2 mph - N/A Rain Light Rain Showers
4:30 PM 48.2 °F - 44.6 °F 87% 29.27 in 6.2 mi West 26.5 mph - N/A Rain Light Rain Showers
5:00 PM 48.2 °F - 44.6 °F 87% 29.27 in 6.2 mi West 25.3 mph 38.0 mph N/A Rain Light Rain Showers
5:30 PM 48.2 °F - 44.6 °F 87% 29.30 in 6.2 mi West 25.3 mph - N/A Rain Light Rain Showers
6:00 PM 48.2 °F - 42.8 °F 82% 29.30 in 6.2 mi West 26.5 mph - N/A   Mostly Cloudy
6:30 PM 50.0 °F - 44.6 °F 82% 29.33 in 6.2 mi West 25.3 mph - N/A   Mostly Cloudy
7:00 PM 50 °F - 43 °F 71% 29.36 in 16 mi West 22.4 mph - -   Partly Cloudy
7:00 PM 50.0 °F - 42.8 °F 76% 29.36 in 6.2 mi West 23.0 mph - N/A   Mostly Cloudy
7:30 PM 48.2 °F - 44.6 °F 87% 29.36 in 6.2 mi West 27.6 mph 39.1 mph N/A Rain Light Rain Showers
8:00 PM 48.2 °F - 42.8 °F 82% 29.39 in 6.2 mi West 27.6 mph - N/A Rain Light Rain Showers
8:30 PM 48.2 °F - 42.8 °F 82% 29.42 in 6.2 mi West 27.6 mph 39.1 mph N/A Rain Light Rain Showers
9:00 PM 48.2 °F - 42.8 °F 82% 29.44 in 6.2 mi West 26.5 mph - N/A   Mostly Cloudy
9:30 PM 48.2 °F - 42.8 °F 82% 29.44 in 6.2 mi West 27.6 mph - N/A   Mostly Cloudy
10:00 PM 48.2 °F - 42.8 °F 82% 29.47 in 6.2 mi West 25.3 mph 36.8 mph N/A   Mostly Cloudy
10:30 PM 48.2 °F - 42.8 °F 82% 29.50 in 6.2 mi West 24.2 mph - N/A   Mostly Cloudy
11:00 PM 48.2 °F - 42.8 °F 82% 29.50 in 6.2 mi West 23.0 mph 34.5 mph N/A   Mostly Cloudy
11:30 PM 48.2 °F - 42.8 °F 82% 29.53 in 6.2 mi West 19.6 mph - N/A   Mostly Cloudy